Regional Weather Roundup
Issued by NWS

Home | Current Version | Previous Version | Text Only | Print | Product List | Glossary Off
Versions: 1 2 3 4 5 6 7 8 9 10 11 12 13 14 15 16 17 18 19 20 21 22 23 24 25 26 27 28

000
ASUS45 KSLC 211010
RWRUT

UTAH REGIONAL WEATHER ROUNDUP
NATIONAL WEATHER SERVICE SALT LAKE CITY UT
400 AM MDT SAT APR 21 2018

UTZ001>011-023>025-211100-

NORTHERN UTAH

CITY           SKY/WX    TMP DP  RH WIND       PRES   REMARKS
BRIGHAM CITY     N/A     44  30  57 NW3       30.14R
HILL AFB         N/A     44  31  60 S8        30.14R
LOGAN            N/A     44  30  57 SE3       30.15R
OGDEN            N/A     43  32  65 S6        30.13R
SALT LAKE CITY   N/A     47  37  68 E8        30.14R
TOOELE VALLEY    N/A     36  32  87 S6        30.15S WCI  31
WENDOVER         N/A     57  19  22 NW24G31   30.13
HEBER CITY       N/A     32  27  80 SE3       30.15R
WEST JORDAN      N/A     42  32  67 S6        30.16R

$$

UTZ011>015-024>027-211100-

CENTRAL/NORTHEAST UTAH

CITY           SKY/WX    TMP DP  RH WIND       PRES   REMARKS
PROVO AIRPORT    N/A     41  38  89 CALM      30.18R
MOAB/CANYONLAN CLOUDY    45  44  97 W3        30.09R
DELTA            N/A     36  34  93 CALM      30.18R
PRICE            N/A     33  33 100 NE5       30.12R WCI  29
RICHFIELD      CLEAR     30  30 100 CALM      30.20S
ROOSEVELT      FOG       37  36  93 N3        30.16S VSB 1/4
VERNAL         MOCLDY    38  37  97 VRB5      30.13R WCI  34

$$

UTZ013>016-019>022-027-211100-

SOUTHERN UTAH

CITY           SKY/WX    TMP DP  RH WIND       PRES   REMARKS
BRYCE CANYON     N/A     33  27  78 W8        30.22R WCI  26
CEDAR CITY       N/A     30  29  96 W7        30.18F WCI  23
MILFORD          N/A     35  35 100 S5        30.18S WCI  31
ST GEORGE        N/A     49  33  54 CALM      30.14R
HANKSVILLE       N/A     36  30  80 NW3       30.13S
KANAB          CLEAR     34  27  75 CALM      30.21S
BLANDING         N/A     38  29  70 NE5       30.16S WCI  35

$$

REGIONAL REPORTS     COLORADO/ARIZONA

CITY           SKY/WX    TMP DP  RH WIND       PRES   REMARKS
CRAIG, CO      CLOUDY    38  33  82 SW3       30.09R
GRAND JUNCTION CLOUDY    42  39  89 N8        30.09R
RIFLE, CO      CLOUDY    35  35 100 CALM      30.10R
MONTROSE, CO   LGT RAIN  37  35  92 SE8       30.11R WCI  31
CORTEZ, CO     CLOUDY    39  30  70 NE3       30.10R
COLORADO CITY    N/A     32  32 100 E3        30.19S
PAGE, AZ         N/A     44  38  79 W3        30.13R
GRAND CANYON     N/A     25  24  96 NE6       30.22S WCI  18
KINGMAN, AZ      N/A     50  23  34 S5        30.12F
FLAGSTAFF, AZ    N/A     24  22  91 NE3       30.20S

$$

REGIONAL REPORTS    NEVADA/IDAHO/WYOMING

CITY           SKY/WX    TMP DP  RH WIND       PRES   REMARKS
LAS VEGAS, NV    N/A     62  33  33 CALM      30.08R
ELY, NY          N/A     26  15  63 S12       30.23F WCI  16
ELKO, NV         N/A     36  24  62 E3        30.22S
POCATELLO, ID    N/A     46  21  37 SW10      30.16R
BURLEY, ID       N/A     43  22  43 SW13      30.14R
FORT BRIDGER,    N/A     34  34 100 CALM      30.20S
EVANSTON, WY     N/A     36  24  62 CALM      30.18R
ROCK SPRINGS,  CLOUDY    36  31  82 E8        30.18S WCI  30
KEMMERER, WY     N/A     30  28  93 W3        30.18S

$$




USA.gov is the U.S. government's official web portal to all federal, state and local government web resources and services.